Detroit Lakes, MN

5:22 PM CST on February 25, 2017 (GMT -0600)
Detroit Lakes

Weather History for KDTL - January, 2013

Change the Weather History Date:

Thursday, January 10, 2013

  Actual Average Record
Temperature  
Mean Temperature 35 °F -  
Max Temperature 44 °F 12 °F 44 °F (1990)
Min Temperature 26 °F -9 °F -35 °F (1989)
Degree Days  
Heating Degree Days 30    
Moisture  
Dew Point 27 °F    
Average Humidity 71    
Maximum Humidity 100    
Minimum Humidity 39    
Precipitation  
Precipitation 0.04 in - - ()
Sea Level Pressure  
Sea Level Pressure 29.86 in    
Wind  
Wind Speed 17 mph (South)    
Max Wind Speed 26 mph    
Max Gust Speed 37 mph    
Visibility 10 miles    
Events Rain    
Averages and records for this station are not official NWS values.
T = Trace of Precipitation, MM = Missing Value Source: NWS Daily Summary

Daily Weather History Graph

Daily Weather History Graph

Search for Another Location

Airport or City:

Trip Planner

Search our weather history database for the weather conditions in past years. The results will help you decide how hot, cold, wet, or windy it might be!

Date:

Astronomy

Jan. 10, 2013 Rise Set
Actual Time 8:06 AM CST 4:56 PM CST
Civil Twilight 7:32 AM CST 5:30 PM CST
Nautical Twilight 6:54 AM CST 6:08 PM CST
Astronomical Twilight 6:17 AM CST 6:45 PM CST
Moon 6:47 AM CST (1/10) 4:05 PM CST (1/10)
Length of Visible Light 9h 58m
Length of Day
8h 49m
Waning Crescent, 2% of the Moon is Illuminated
Jan 10
Waning Crescent
Jan 11
New
Jan 18
First Quarter
Jan 26
Full
Feb 3
Last Quarter

Hourly Weather History & Observations

Time (CST) Temp. Windchill Dew Point Humidity Pressure Visibility Wind Dir Wind Speed Gust Speed Precip Events Conditions
12:12 AM 26.6 °F 16.8 °F 21.2 °F 80% 30.06 in 10.0 mi SSE 10.4 mph - N/A   Clear
12:33 AM 26.6 °F 15.7 °F 21.2 °F 80% 30.06 in 10.0 mi SE 12.7 mph - N/A   Clear
12:53 AM 26.6 °F 16.2 °F 21.2 °F 80% 30.06 in 10.0 mi SSE 11.5 mph - N/A   Clear
1:12 AM 26.6 °F 16.8 °F 21.2 °F 80% 30.05 in 10.0 mi SSE 10.4 mph - N/A   Clear
1:33 AM 26.6 °F 16.2 °F 23.0 °F 86% 30.05 in 10.0 mi SSE 11.5 mph - N/A   Clear
1:53 AM 26.6 °F 17.5 °F 23.0 °F 86% 30.05 in 10.0 mi SE 9.2 mph - N/A   Clear
2:12 AM 28.4 °F 18.5 °F 23.0 °F 80% 30.04 in 10.0 mi SE 11.5 mph - N/A   Clear
2:33 AM 28.4 °F 19.1 °F 23.0 °F 80% 30.03 in 10.0 mi SE 10.4 mph - N/A   Clear
2:53 AM 26.6 °F 15.7 °F 23.0 °F 86% 30.03 in 10.0 mi SSE 12.7 mph - N/A   Clear
3:12 AM 26.6 °F 15.2 °F 23.0 °F 86% 30.02 in 10.0 mi SSE 13.8 mph - N/A   Clear
3:33 AM 28.4 °F 17.5 °F 24.8 °F 86% 30.01 in 10.0 mi SSE 13.8 mph - N/A   Clear
3:53 AM 30.2 °F 18.9 °F 26.6 °F 86% 29.99 in 10.0 mi SSE 16.1 mph - N/A   Clear
4:12 AM 32.0 °F 21.6 °F 28.4 °F 87% 29.98 in 10.0 mi South 15.0 mph 19.6 mph N/A   Clear
4:33 AM 35.6 °F 25.9 °F 28.4 °F 75% 29.98 in 10.0 mi South 16.1 mph - N/A   Clear
4:53 AM 37.4 °F 28.2 °F 28.4 °F 70% 29.97 in 10.0 mi South 16.1 mph 23.0 mph N/A   Clear
5:12 AM 39.2 °F 29.6 °F 28.4 °F 65% 29.96 in 10.0 mi South 19.6 mph 25.3 mph N/A   Clear
5:33 AM 41.0 °F 31.6 °F 28.4 °F 61% 29.96 in 10.0 mi South 20.7 mph 26.5 mph N/A   Clear
5:53 AM 41.0 °F 31.1 °F 28.4 °F 61% 29.96 in 10.0 mi South 23.0 mph 28.8 mph N/A   Clear
6:12 AM 41.0 °F 31.6 °F 28.4 °F 61% 29.95 in 10.0 mi South 20.7 mph 31.1 mph N/A   Clear
6:33 AM 41.0 °F 31.4 °F 28.4 °F 61% 29.96 in 10.0 mi South 21.9 mph 32.2 mph N/A   Clear
6:53 AM 41.0 °F 31.4 °F 28.4 °F 61% 29.95 in 10.0 mi South 21.9 mph 27.6 mph N/A   Clear
7:53 AM 41.0 °F 31.1 °F 28.4 °F 61% 29.95 in 10.0 mi South 23.0 mph 33.4 mph N/A   Clear
8:12 AM 41.0 °F 31.1 °F 28.4 °F 61% 29.95 in 10.0 mi South 23.0 mph 31.1 mph N/A   Clear
8:33 AM 42.8 °F 33.1 °F 26.6 °F 53% 29.95 in 10.0 mi South 25.3 mph 36.8 mph N/A   Clear
8:53 AM 42.8 °F 33.5 °F 26.6 °F 53% 29.95 in 10.0 mi South 23.0 mph 32.2 mph N/A   Clear
9:12 AM 42.8 °F 33.1 °F 26.6 °F 53% 29.94 in 10.0 mi South 25.3 mph 31.1 mph N/A   Clear
9:53 AM 44.6 °F 35.3 °F 26.6 °F 49% 29.95 in 10.0 mi South 26.5 mph 36.8 mph N/A   Clear
10:12 AM 42.8 °F 32.9 °F 26.6 °F 53% 29.95 in 10.0 mi South 26.5 mph 33.4 mph N/A   Clear
10:33 AM 42.8 °F 33.5 °F 26.6 °F 53% 29.94 in 10.0 mi South 23.0 mph 31.1 mph N/A   Clear
10:53 AM 42.8 °F 33.1 °F 26.6 °F 53% 29.93 in 10.0 mi South 25.3 mph 33.4 mph N/A   Clear
11:12 AM 42.8 °F 34.3 °F 26.6 °F 53% 29.93 in 10.0 mi South 19.6 mph 33.4 mph N/A   Clear
11:33 AM 42.8 °F 33.5 °F 26.6 °F 53% 29.92 in 10.0 mi South 23.0 mph 31.1 mph N/A   Clear
11:53 AM 42.8 °F 33.3 °F 26.6 °F 53% 29.91 in 10.0 mi South 24.2 mph 36.8 mph N/A   Clear
12:12 PM 42.8 °F 35.1 °F 26.6 °F 53% 29.90 in 10.0 mi South 16.1 mph 28.8 mph N/A   Clear
12:32 PM 42.8 °F 33.5 °F 26.6 °F 53% 29.88 in 10.0 mi South 23.0 mph 28.8 mph N/A   Scattered Clouds
12:53 PM 42.8 °F 34.0 °F 26.6 °F 53% 29.86 in 10.0 mi South 20.7 mph 32.2 mph N/A   Scattered Clouds
1:32 PM 42.8 °F 34.3 °F 26.6 °F 53% 29.84 in 10.0 mi South 19.6 mph 31.1 mph N/A   Clear
1:53 PM 42.8 °F 33.1 °F 26.6 °F 53% 29.84 in 10.0 mi South 25.3 mph 31.1 mph N/A   Clear
2:13 PM 42.8 °F 32.9 °F 24.8 °F 49% 29.84 in 10.0 mi South 26.5 mph 29.9 mph N/A   Clear
2:32 PM 42.8 °F 33.8 °F 23.0 °F 46% 29.83 in 10.0 mi South 21.9 mph 31.1 mph N/A   Clear
2:53 PM 42.8 °F 33.3 °F 21.2 °F 42% 29.83 in 10.0 mi South 24.2 mph 33.4 mph N/A   Clear
3:13 PM 42.8 °F 34.5 °F 19.4 °F 39% 29.83 in 10.0 mi South 18.4 mph 28.8 mph N/A   Clear
3:32 PM 41.0 °F 31.1 °F 21.2 °F 45% 29.82 in 10.0 mi SSE 23.0 mph 26.5 mph N/A   Clear
3:53 PM 41.0 °F 32.2 °F 23.0 °F 49% 29.80 in 10.0 mi SSE 18.4 mph 27.6 mph N/A   Clear
4:13 PM 39.2 °F 29.0 °F 24.8 °F 56% 29.79 in 10.0 mi SSE 21.9 mph 28.8 mph N/A   Clear
4:32 PM 39.2 °F 29.0 °F 26.6 °F 61% 29.78 in 10.0 mi South 21.9 mph 34.5 mph N/A   Clear
4:53 PM 37.4 °F 26.1 °F 26.6 °F 65% 29.77 in 10.0 mi South 24.2 mph 29.9 mph N/A   Clear
5:13 PM 37.4 °F 26.4 °F 30.2 °F 75% 29.77 in 10.0 mi South 23.0 mph 28.8 mph N/A   Mostly Cloudy
5:32 PM 37.4 °F 27.8 °F 30.2 °F 75% 29.76 in 10.0 mi South 17.3 mph 26.5 mph N/A   Light Drizzle
5:53 PM 37.4 °F 27.8 °F 32.0 °F 81% 29.75 in 10.0 mi SSE 17.3 mph 26.5 mph N/A   Light Drizzle
6:13 PM 35.6 °F 25.5 °F 32.0 °F 87% 29.74 in 10.0 mi SSE 17.3 mph - N/A Rain Light Rain
6:32 PM 35.6 °F 24.5 °F 32.0 °F 87% 29.73 in 7.0 mi SSE 20.7 mph 25.3 mph N/A Rain Rain
6:53 PM 33.8 °F 22.5 °F 32.0 °F 93% 29.72 in 7.0 mi SSE 19.6 mph 26.5 mph N/A Rain Rain
7:13 PM 33.8 °F 21.9 °F 32.0 °F 93% 29.70 in 10.0 mi SSE 21.9 mph - N/A   Drizzle
7:32 PM 33.8 °F 22.8 °F 32.0 °F 93% 29.69 in 10.0 mi SSE 18.4 mph - N/A Rain Rain
7:53 PM 33.8 °F 21.9 °F 32.0 °F 93% 29.68 in 10.0 mi SSE 21.9 mph 28.8 mph N/A Rain Light Rain
8:13 PM 33.8 °F 21.6 °F 32.0 °F 93% 29.66 in 5.0 mi SSE 23.0 mph 29.9 mph N/A   Overcast
8:53 PM 33.8 °F 23.2 °F 32.0 °F 93% 29.66 in 7.0 mi SSE 17.3 mph 26.5 mph 0.02 in   Overcast
9:12 PM 33.8 °F 22.5 °F 32.0 °F 93% 29.66 in 7.0 mi SSE 19.6 mph - N/A   Overcast
9:33 PM 33.8 °F 22.5 °F 32.0 °F 93% 29.65 in 7.0 mi SSE 19.6 mph 28.8 mph 0.01 in Rain Light Rain
9:53 PM 33.8 °F 22.2 °F 32.0 °F 93% 29.64 in 7.0 mi SSE 20.7 mph - 0.02 in   Overcast
10:12 PM 33.8 °F 22.5 °F 32.0 °F 93% 29.62 in 10.0 mi SSE 19.6 mph 25.3 mph N/A   Overcast
10:33 PM 32.0 °F 21.2 °F 32.0 °F 100% 29.61 in 10.0 mi SSE 16.1 mph 23.0 mph N/A   Overcast
10:53 PM 32.0 °F 20.8 °F 32.0 °F 100% 29.60 in 10.0 mi SSE 17.3 mph 23.0 mph N/A   Overcast
11:12 PM 32.0 °F 20.8 °F 32.0 °F 100% 29.59 in 10.0 mi SSE 17.3 mph - N/A   Overcast
11:53 PM 32.0 °F 22.1 °F 32.0 °F 100% 29.59 in 10.0 mi South 13.8 mph - N/A   Overcast